Probability
0 0 0 0 0 0 0 0 0 0 0 0 0 0 0 0 0 0 0 0 0 0 0 0 0 0 0 0 0 0 0 0 0 0 0 0 0 0 0 0 0 0 0 0 0 0 0 0 0
0 0 0 0 0 0 0 0 0 0 0 0 0 0 0 0 0 0 0 0 0 0 0 0 0 0 0 0 0 0 0 0 0 0 0 0 0 0 0 0 0 0 0 0 0 0 0 0 0
0 0 0 0 0 0 0 0 0 0 0 0 0 0 0 0 0 0 0 0 0 0 0 0 0 0 0 0 0 0 0 0 0 0 0 0 0 0 0 0 0 0 0 0 0 0 0 0 0
0 0 0 0 0 0 0 0 0 0 0 0 0 0 0 0 0 0 0 0 0 0 0 0 0 0 0 0 0 0 0 0 0 0 0 0 0 0 0 0 0 0 0 0 0 0 0 0 0
0 0 0 0 0 0 0 0 0 0 0 0 0 0 0 0 0 0 0 0 0 0 0 0 0 0 0 0 0 0 0 0 0 0 0 0 0 0 0 0 0 0 0 0 0 0 0 0 0
0 0 0 0 0 0 0 0 0 0 0 0 0 0 0 0 0 0 0 0 0 0 0 0 0 0 0 0 0 0 0 0 0 0 0 0 0 0 0 0 0 0 0 0 0 0 0 0 0
0 0 0 0 0 0 0 0 0 0 0 0 0 0 0 0 0 0 0 0 0 0 0 0 0 0 0 0 0 0 0 0 0 0 0 0 0 0 0 0 0 0 0 0 0 0 0 0 0
0 0 0 0 0 0 0 0 0 0 0 0 0 0 0 0 0 0 0 0 0 0 0 0 0 0 0 0 0 0 0 0 0 0 0 0 0 0 0 0 0 0 0 0 0 0 0 0 0
0 0 0 0 0 0 0 0 0 0 0 0 0 0 0 0 0 0 0 0 0 0 0 0 0 0 0 0 0 0 0 0 0 0 0 0 0 0 0 0 0 0 0 0 0 0 0 0 0
0 0 0 0 0 0 0 0 0 0 0 0 0 0 0 0 0 0 0 0 0 0 0 0 0 0 0 0 0 0 0 0 0 0 0 0 0 0 0 0 0 0 0 0 0 0 0 0 0
0 0 0 0 0 0 0 0 0 0 0 0 0 0 0 0 0 0 0 0 0 0 0 0 0 0 0 0 0 0 0 0 0 0 0 0 0 0 0 0 0 0 0 0 0 0 0 0 0
0 0 0 0 0 0 0 0 0 0 0 0 0 0 0 0 0 0 0 0 0 0 0 0 0 0 0 0 0 0 0 0 0 0 0 0 0 0 0 0 0 0 0 0 0 0 0 0 0
0 0 0 0 0 0 0 0 0 0 0 0 0 0 0 0 0 0 0 0 0 0 0 0 0 0 0 0 0 0 0 0 0 0 0 0 0 0 0 0 0 0 0 0 0 0 0 0 0
0 0 0 0 0 0 0 0 0 0 0 0 0 0 0 0 0 0 0 0 0 0 0 0 0 0 0 0 0 0 0 0 0 0 0 0 0 0 0 0 0 0 0 0 0 0 0 0 0
0 0 0 0 0 0 0 0 0 0 0 0 0 0 0 0 0 0 0 0 0 0 0 0 0 0 0 0 0 0 0 0 0 0 0 0 0 0 0 0 0 0 0 0 0 0 0 0 0
1 0 0 0 0 0 0 0 0 0 0 0 0 0 0 0 0 0 0 0 0 0 0 0 0 0 0 0 0 0 0 0 0 0 0 0 0 0 0 0 0 0 0 0 0 0 0 0 0
1 0 0 0 0 0 0 0 0 0 0 0 0 0 0 0 0 0 0 0 0 0 0 0 0 0 0 0 0 0 0 0 0 0 0 0 0 0 0 0 0 0 0 0 0 0 0 0 0
1 0 0 0 0 0 0 0 0 0 0 0 0 0 0 0 0 0 0 0 0 0 0 0 0 0 0 0 0 0 0 0 0 0 0 0 0 0 0 0 0 0 0 0 0 0 0 0 0
0 0 0 0 0 0 0 0 0 0 0 0 0 0 0 0 0 0 0 0 0 0 0 1 1 1 0 0 0 0 0 0 0 0 0 0 0 0 0 0 0 0 0 0 0 0 0 0 0
0 0 0 0 0 0 0 0 0 0 0 0 0 0 0 0 0 0 0 0 1 1 1 1 2 2 1 0 0 0 0 0 0 0 0 0 0 0 0 0 0 0 0 0 0 0 0 0 0
0 0 0 0 0 0 0 0 0 0 0 0 0 0 0 0 0 0 0 0 1 2 2 2 2 2 2 1 0 0 0 0 0 0 0 0 0 0 0 1 0 0 0 0 0 0 0 0 0
0 0 0 0 0 0 0 0 0 0 0 0 0 0 0 0 0 0 0 0 0 1 2 2 2 2 3 2 1 0 0 0 0 0 0 0 0 0 0 0 0 0 0 0 0 0 0 0 0
0 0 0 0 0 0 0 0 0 0 0 0 0 0 0 0 0 0 0 0 0 0 1 2 2 3 4 4 2 1 0 0 0 0 0 0 0 0 0 0 0 0 0 0 0 0 0 0 0
0 0 0 0 0 0 0 0 0 0 0 0 0 0 0 0 0 0 0 0 0 0 0 1 2 3 5 4 3 1 0 0 0 0 0 0 0 0 0 0 0 0 0 0 0 0 0 0 0
0 0 0 0 0 0 0 0 0 0 0 0 0 0 0 0 0 0 0 0 0 0 0 0 0 2 3 4 3 2 1 0 0 0 0 0 0 0 0 0 0 0 0 0 0 0 0 0 0
0 0 0 0 0 0 0 0 0 0 0 0 0 0 0 0 0 0 0 0 0 0 0 0 0 1 2 3 3 3 2 1 0 0 0 0 0 0 0 0 0 0 0 0 0 0 0 0 0
0 0 0 0 0 0 0 0 0 0 0 0 0 0 0 0 0 0 0 0 0 0 0 0 0 1 2 3 3 3 3 1 0 0 0 0 0 0 0 0 0 0 0 0 0 0 0 1 1
0 0 0 0 0 0 0 0 0 0 0 0 0 0 0 0 0 0 0 0 0 0 0 0 0 1 2 2 2 2 2 1 0 0 0 0 0 0 0 0 0 0 0 0 0 0 0 1 2
0 0 0 0 0 0 0 0 0 0 0 0 0 0 0 0 0 0 0 0 0 0 0 0 0 0 1 1 1 1 1 1 0 0 0 0 0 0 0 0 0 0 0 0 0 0 0 1 1
0 0 0 0 0 0 0 0 0 0 0 0 0 0 0 0 0 0 0 0 0 0 0 0 0 0 0 0 0 0 0 0 0 0 0 0 0 0 0 0 0 0 0 0 0 0 0 0 0
Wind_Speed
18 15 7 3 3 4 1 3 4 4 4 6 5 4 6 9 7 8 5 9 14 15 14 12 12 12 12 11 10 9 10 10 10 10 10 10 11 11 11 11 10 10 11 11 11 11 11 11 10
15 14 6 4 4 3 2 4 5 7 7 5 3 0 3 8 8 8 6 9 14 14 13 12 12 12 12 11 10 9 9 10 10 10 10 10 10 10 10 9 9 9 9 9 9 9 9 9 9
15 10 4 4 4 3 2 4 8 9 6 3 3 2 5 7 8 7 8 10 12 12 11 13 13 12 12 11 10 9 9 9 9 9 9 9 9 9 9 8 8 8 8 8 8 8 7 7 7
7 5 4 5 5 2 3 5 9 8 4 1 2 6 6 5 5 9 10 10 11 11 12 13 13 12 12 11 10 9 9 9 9 8 9 8 8 8 7 7 6 6 6 7 7 6 6 6 6
5 4 5 6 5 1 3 5 6 7 7 5 2 6 7 5 10 12 9 10 10 10 11 12 12 11 11 11 10 9 9 9 8 8 8 8 7 7 6 6 6 5 5 5 5 5 4 4 4
4 3 5 6 5 3 2 3 3 4 5 5 3 5 7 7 9 9 9 8 9 10 11 11 11 10 10 9 9 8 8 8 8 8 7 7 7 6 5 5 5 4 4 4 3 3 3 2 2
4 4 7 8 4 3 4 3 3 3 4 4 1 4 8 7 8 9 8 7 9 9 10 10 8 9 9 9 8 8 7 7 7 7 7 6 6 5 5 4 4 4 4 4 3 2 2 1 0
3 4 8 8 6 4 5 4 1 1 3 4 1 1 8 10 9 8 7 6 8 8 8 9 9 8 7 7 8 8 7 7 6 7 6 6 6 5 5 5 5 5 4 4 4 3 2 2 3
4 5 8 8 6 3 6 4 3 3 2 3 3 7 9 14 11 9 7 6 6 6 6 7 8 8 8 8 9 8 7 7 7 6 7 6 4 5 5 6 6 6 5 4 5 5 4 4 5
4 6 9 5 4 2 4 5 5 4 4 5 5 8 10 11 10 10 9 9 8 8 7 6 7 7 7 7 7 6 6 6 6 5 6 5 5 4 5 8 8 7 6 6 6 6 5 5 4
5 7 7 5 4 4 2 3 4 5 6 7 9 12 11 10 10 10 10 10 10 9 8 7 7 7 6 4 5 4 4 5 6 7 7 5 4 3 3 3 5 5 6 5 6 5 4 5 4
8 8 7 5 3 3 3 3 4 6 4 1 4 10 12 11 10 10 10 10 9 9 10 8 7 7 6 5 5 4 3 4 4 5 6 5 3 3 3 3 4 4 4 4 4 4 5 6 5
11 8 7 5 3 4 5 6 6 7 4 2 4 6 8 10 10 9 8 7 8 9 9 9 8 8 7 6 5 5 4 4 5 4 5 5 4 4 4 3 3 4 4 4 4 4 5 5 5
6 7 9 8 7 5 6 8 8 8 5 4 5 7 8 9 9 9 8 8 9 9 9 9 9 9 8 7 6 5 4 5 5 5 6 6 5 4 4 4 4 4 4 4 4 5 4 4 4
6 7 9 10 9 7 5 10 12 10 7 7 7 8 9 9 9 9 9 9 8 8 9 9 10 9 9 8 8 5 5 5 5 5 6 7 6 5 4 4 4 4 4 4 3 4 3 3 4
6 8 10 10 11 8 7 13 10 10 11 10 9 8 9 9 10 9 9 8 8 8 8 9 8 9 9 8 7 6 6 6 5 5 5 7 8 7 5 4 4 4 4 4 4 3 3 4 4
9 11 13 10 11 10 11 11 7 7 9 10 9 9 8 8 9 8 8 8 8 8 8 9 9 10 9 8 7 6 6 6 5 5 5 6 7 8 6 5 4 4 4 4 4 4 3 4 4
12 12 11 12 9 12 14 13 8 7 8 9 9 8 8 8 8 7 8 7 7 7 7 8 8 9 8 7 6 5 5 5 5 5 6 7 7 8 7 5 6 5 4 4 4 4 4 3 3
9 11 12 9 7 9 13 14 12 10 10 10 9 9 8 9 7 7 7 7 7 7 7 7 8 8 7 6 7 6 7 6 5 5 6 8 7 8 8 6 6 6 5 6 6 4 5 4 3
15 14 13 7 4 5 8 12 11 12 12 11 11 10 9 8 7 7 7 7 8 8 7 7 7 8 8 7 7 5 5 4 5 5 6 7 7 7 7 8 6 6 5 6 6 5 4 4 4
17 16 13 8 2 5 6 11 13 14 14 13 12 10 9 9 8 7 7 7 7 7 7 7 7 7 7 7 5 4 4 3 4 6 6 7 8 7 7 7 7 6 6 6 7 6 6 5 4
17 13 11 9 5 5 6 8 9 11 14 16 14 12 10 9 8 7 6 6 6 6 6 6 6 6 6 6 6 8 7 8 7 6 5 5 7 8 8 7 7 7 6 6 6 6 6 5 4
10 6 8 8 8 8 7 8 8 9 14 15 14 13 12 10 9 7 6 5 5 5 5 4 4 4 5 6 7 8 7 7 5 4 5 6 6 7 7 7 7 7 6 6 5 5 6 5 5
6 4 5 6 6 13 14 12 10 10 13 10 11 11 11 9 8 6 4 4 4 4 4 4 4 4 4 5 6 7 8 7 6 6 5 5 4 4 6 6 6 6 6 6 6 5 6 5 6
9 8 6 8 10 12 11 13 11 7 8 8 8 8 8 8 7 6 5 4 4 4 3 3 4 4 4 4 5 6 7 7 7 6 5 4 3 3 5 5 5 5 5 5 5 4 5 5 5
15 14 10 8 8 6 9 13 9 6 6 5 4 4 5 5 6 5 5 4 4 4 3 3 3 3 3 3 3 4 5 4 4 5 4 4 3 3 4 5 5 4 4 4 4 3 4 3 4
13 15 11 6 4 4 7 8 8 5 5 6 5 5 5 5 5 5 4 3 3 3 3 3 3 2 2 2 2 2 2 2 2 2 2 2 2 2 3 4 4 4 3 3 3 3 3 3 3
11 8 6 10 8 10 8 11 8 8 10 9 8 7 6 5 5 4 4 3 3 2 1 1 2 2 2 2 2 1 1 1 1 2 2 1 1 1 2 2 3 2 2 2 2 2 2 2 2
12 13 10 7 7 7 7 6 6 9 9 10 9 7 7 6 5 4 3 3 3 2 1 1 2 2 2 2 2 2 1 1 2 2 2 1 2 2 2 2 3 2 2 1 1 1 1 1 1
11 13 13 10 8 7 7 7 2 2 2 4 5 6 6 5 5 4 4 3 2 2 2 2 2 2 1 2 2 2 2 2 2 2 2 2 2 2 2 3 3 3 3 2 1 1 1 1 0
Wind_Direction
313 304 290 263 250 238 172 104 108 104 86 56 45 12 31 46 41 95 125 117 118 125 133 141 137 137 132 130 130 128 127 125 120 115 109 107 105 103 99 97 95 93 90 87 85 84 82 80 78
305 301 289 247 254 262 146 123 113 85 86 95 91 11 93 82 87 108 121 118 124 129 140 143 138 139 136 134 133 132 130 126 121 117 112 109 108 107 104 101 99 97 94 92 89 87 85 82 78
297 284 270 261 256 267 122 113 104 94 104 131 131 30 44 81 106 120 127 131 127 131 135 134 141 142 141 139 138 138 136 133 128 124 120 114 110 110 109 106 104 102 101 97 92 89 88 83 79
303 284 247 256 265 344 94 113 111 121 122 136 145 114 81 54 82 113 130 136 130 130 128 138 144 145 146 146 145 145 146 143 138 133 128 122 117 113 113 111 110 108 106 102 95 89 88 81 78
280 261 259 257 258 76 77 92 127 148 155 164 189 112 99 87 98 119 140 138 133 132 130 143 145 147 149 152 153 153 153 151 148 144 137 132 129 126 126 125 120 118 114 108 102 92 90 79 76
288 271 261 249 233 162 139 121 169 162 134 138 168 120 105 124 123 137 141 142 136 133 133 144 146 150 154 157 159 160 158 157 155 154 150 146 145 142 143 144 140 135 130 126 124 113 102 86 73
280 276 267 268 252 179 156 140 201 178 152 145 159 119 121 138 131 139 142 145 135 133 136 145 155 158 160 162 163 163 162 162 161 160 158 152 151 154 152 154 161 163 158 156 159 156 152 160 228
289 277 263 261 251 206 151 153 222 279 114 86 10 99 135 139 135 137 141 142 135 137 146 155 163 167 168 169 170 167 167 167 165 163 158 156 159 166 169 173 178 184 182 183 184 187 207 236 248
273 252 252 249 248 212 145 169 160 10 87 106 75 55 104 128 136 140 145 149 145 151 160 164 166 171 172 175 174 171 173 176 171 167 169 170 186 187 185 193 180 186 190 195 202 205 213 231 240
232 242 248 270 297 286 166 186 166 175 192 164 138 106 116 134 149 160 168 173 170 173 177 175 173 174 175 178 163 177 182 179 189 186 179 193 210 198 184 174 177 182 191 204 216 218 220 228 235
235 245 265 280 323 321 269 212 195 199 214 195 169 152 149 158 169 178 184 184 182 182 182 182 180 177 176 170 165 180 183 178 194 196 186 193 202 188 173 162 172 189 202 212 216 215 220 223 227
250 256 267 274 320 312 283 270 242 230 236 82 130 147 156 171 184 190 191 187 180 182 185 185 183 179 181 176 177 182 181 180 188 194 191 187 189 196 189 185 183 189 195 204 206 206 218 225 229
241 255 266 275 270 280 285 267 263 250 241 138 107 138 169 181 189 194 194 188 180 186 186 186 185 186 184 183 186 188 189 187 191 189 193 194 189 195 201 197 198 199 197 196 204 216 224 224 228
246 250 254 256 255 248 250 258 256 248 239 214 178 184 195 198 195 191 192 194 192 189 189 187 189 192 187 188 191 193 193 191 193 189 193 199 201 199 200 203 203 208 207 204 202 213 224 223 224
261 263 254 238 236 233 240 248 237 242 240 229 212 205 207 206 198 198 197 195 193 191 190 189 190 192 193 194 197 196 197 195 197 196 196 198 204 208 205 206 207 209 211 212 212 223 227 229 229
226 236 242 226 217 216 215 244 230 221 224 228 226 218 213 209 202 201 196 192 191 189 192 192 187 190 196 198 198 199 201 201 199 197 197 201 204 208 212 211 213 209 206 204 209 218 225 231 234
212 222 227 224 209 204 213 243 234 224 221 225 227 224 220 212 204 197 192 188 189 189 190 191 188 190 195 198 199 202 202 205 202 198 201 202 204 207 209 212 215 212 208 207 210 214 217 231 239
205 217 227 225 202 206 221 236 235 235 233 231 230 229 224 220 209 196 190 187 185 187 188 191 190 191 191 191 198 203 207 209 207 204 204 203 204 204 206 212 216 213 211 211 210 217 220 227 240
246 234 231 230 209 212 228 239 239 235 237 236 231 228 229 228 215 198 190 185 180 182 187 191 193 194 189 189 193 200 208 208 209 210 208 208 205 200 203 209 212 211 213 213 212 211 224 227 218
242 250 250 248 209 221 242 248 246 242 239 235 233 229 227 230 220 204 193 186 184 186 189 192 196 196 195 196 194 195 194 203 210 209 213 213 209 206 205 208 210 209 212 214 213 207 212 216 195
229 235 240 245 248 244 258 259 240 241 240 240 236 232 230 225 220 212 201 190 183 188 190 193 196 198 198 192 181 180 188 201 210 213 215 214 213 213 209 209 211 211 209 214 212 208 209 219 211
229 227 240 249 247 247 218 261 239 231 230 229 229 228 228 229 225 217 206 195 187 189 183 185 191 198 199 191 188 189 196 207 212 208 207 200 206 212 213 214 214 215 213 215 214 210 210 213 221
230 218 229 238 245 255 235 253 253 224 230 225 220 218 218 218 217 213 205 192 178 172 170 175 184 198 202 198 196 198 206 212 206 197 197 200 202 206 210 211 213 217 218 218 212 209 211 212 218
215 212 232 242 237 241 225 232 255 219 225 220 216 212 208 204 203 201 194 173 170 159 159 169 183 200 206 203 198 199 205 207 201 201 200 199 193 197 203 207 212 215 216 218 217 214 215 217 219
201 187 199 206 218 234 202 221 244 220 219 212 212 204 193 187 186 190 190 180 164 158 162 169 179 197 204 203 202 204 209 207 205 204 203 193 187 193 202 203 210 213 217 218 215 215 221 221 222
203 202 203 204 212 228 195 223 241 212 206 205 207 190 178 177 174 173 168 161 159 160 164 171 179 188 194 202 206 206 207 207 210 208 199 192 190 193 187 195 201 204 208 214 212 213 219 222 225
204 216 227 251 264 254 229 233 237 195 195 196 196 189 186 180 165 155 151 145 149 154 164 170 169 173 177 188 196 196 198 199 198 189 181 177 177 171 173 179 184 193 200 205 203 210 211 212 222
220 202 203 216 218 234 235 229 228 206 208 204 198 194 187 172 162 150 140 127 118 119 120 123 153 162 160 157 167 150 166 161 147 127 133 141 128 116 130 139 152 166 180 184 187 199 204 204 222
207 213 213 212 216 217 234 236 225 212 202 202 198 186 176 168 154 139 123 119 119 114 116 115 102 113 122 121 117 113 104 95 101 105 99 99 92 99 111 117 119 119 116 117 145 164 149 181 217
220 218 214 217 222 220 240 250 311 41 121 154 164 157 149 144 139 135 134 135 139 143 137 116 96 85 85 101 103 101 98 100 101 98 92 93 97 92 94 97 100 96 89 86 106 126 128 145 149